Weather History for LKTB - October, 2012

Change the Weather History Date:

Wednesday, October 10, 2012

  Actual Average Record
Temperature  
Mean Temperature 44 °F -  
Max Temperature 54 °F 53 °F - ()
Min Temperature 34 °F 39 °F - ()
Degree Days  
Heating Degree Days 21    
Moisture  
Dew Point 35 °F    
Average Humidity 68    
Maximum Humidity 93    
Minimum Humidity 42    
Precipitation  
Precipitation 0.00 in 0.04 in - ()
Sea Level Pressure  
Sea Level Pressure 29.95 in    
Wind  
Wind Speed 4 mph ()    
Max Wind Speed 8 mph    
Max Gust Speed -    
Visibility 7.4 miles    
Events      
T = Trace of Precipitation, MM = Missing Value Source: Averaged Metar Reports

Daily Weather History Graph

Daily Weather History Graph

Search for Another Location

Airport or City:

Trip Planner

Search our weather history database for the weather conditions in past years. The results will help you decide how hot, cold, wet, or windy it might be!

Date:

Astronomy

Oct. 10, 2012 Rise Set
Actual Time 7:06 AM CEST 6:12 PM CEST
Civil Twilight 6:34 AM CEST 6:44 PM CEST
Nautical Twilight 5:58 AM CEST 7:21 PM CEST
Astronomical Twilight 5:21 AM CEST 7:58 PM CEST
Moon 12:57 AM CEST (10/10) 3:29 PM CEST (10/10)
Length of Visible Light 12h 09m
Length of Day
11h 06m
Waning Crescent, 30% of the Moon is Illuminated
Oct 10
Waning Crescent
Oct 15
New
Oct 22
First Quarter
Oct 29
Full
Nov 7
Last Quarter

Hourly Weather History & Observations

Time (CEST) Temp. Windchill Dew Point Humidity Pressure Visibility Wind Dir Wind Speed Gust Speed Precip Events Conditions
12:00 AM 42.8 °F 38.6 °F 37.4 °F 81% 29.95 in - NW 6.9 mph - N/A   Clear
12:30 AM 42.8 °F 38.0 °F 35.6 °F 76% 29.95 in - NW 8.1 mph - N/A   Clear
1:00 AM 42.8 °F 38.6 °F 35.6 °F 76% 29.95 in - NW 6.9 mph - N/A   Clear
1:30 AM 42.8 °F 39.3 °F 35.6 °F 76% 29.95 in - NW 5.8 mph - N/A   Clear
2:00 AM 42 °F - 35 °F 68% 29.98 in 12 mi NW 4.5 mph - -  
2:00 AM 42.8 °F 41.1 °F 35.6 °F 76% 29.95 in - NW 3.5 mph - N/A   Clear
2:30 AM 41.0 °F 39.0 °F 33.8 °F 76% 29.95 in - West 3.5 mph - N/A   Clear
3:00 AM 39.2 °F 34.2 °F 33.8 °F 81% 29.95 in - WSW 6.9 mph - N/A   Clear
3:30 AM 41.0 °F 36.4 °F 33.8 °F 76% 29.95 in - West 6.9 mph - N/A   Clear
4:00 AM 39.2 °F 35.0 °F 33.8 °F 81% 29.95 in - WNW 5.8 mph - N/A   Clear
4:30 AM 39.2 °F 34.2 °F 33.8 °F 81% 29.95 in - WNW 6.9 mph - N/A   Clear
5:00 AM 37.4 °F - 33.8 °F 87% 29.95 in - Variable 2.3 mph - N/A   Clear
5:30 AM 35.6 °F - 32.0 °F 87% 29.95 in - NNW 2.3 mph - N/A   Clear
6:00 AM 35.6 °F 32.8 °F 32.0 °F 87% 29.95 in - West 3.5 mph - N/A   Clear
6:30 AM 35.6 °F 29.9 °F 33.8 °F 93% 29.95 in - WNW 6.9 mph - N/A   Clear
7:00 AM 37.4 °F 32.1 °F 33.8 °F 87% 29.95 in - WNW 6.9 mph - N/A   Clear
7:30 AM 35.6 °F 29.2 °F 32.0 °F 87% 29.95 in - NW 8.1 mph - N/A   Clear
8:00 AM 39 °F - 34 °F 76% 30.00 in 11 mi SE 2.2 mph - -   Scattered Clouds
8:00 AM 39.2 °F 37.0 °F 33.8 °F 81% 29.95 in - Variable 3.5 mph - N/A   Clear
8:30 AM 41.0 °F 39.0 °F 35.6 °F 81% 29.95 in - SE 3.5 mph - N/A   Clear
9:00 AM 42.8 °F - 35.6 °F 76% 29.98 in - Variable 2.3 mph - N/A   Clear
9:30 AM 42.8 °F - 35.6 °F 76% 29.98 in - Variable 1.2 mph - N/A   Clear
10:00 AM 44.6 °F - 37.4 °F 76% 29.98 in 6.2 mi Variable 2.3 mph - N/A   Partly Cloudy
10:30 AM 46.4 °F - 37.4 °F 71% 29.98 in 6.2 mi Variable 1.2 mph - N/A   Partly Cloudy
11:00 AM 48.2 °F - 37.4 °F 66% 29.98 in 6.2 mi WSW 3.5 mph - N/A   Partly Cloudy
11:30 AM 50.0 °F - 39.2 °F 66% 29.98 in 6.2 mi SSW 4.6 mph - N/A   Partly Cloudy
12:00 PM 51.8 °F - 37.4 °F 58% 29.95 in 6.2 mi WSW 5.8 mph - N/A   Scattered Clouds
12:30 PM 51.8 °F - 35.6 °F 54% 29.95 in 6.2 mi Variable 5.8 mph - N/A   Scattered Clouds
1:00 PM 51.8 °F - 35.6 °F 54% 29.95 in 6.2 mi West 4.6 mph - N/A   Mostly Cloudy
1:30 PM 51.8 °F - 35.6 °F 54% 29.95 in 6.2 mi SW 4.6 mph - N/A   Mostly Cloudy
2:00 PM 52 °F - 36 °F 42% 29.95 in 19 mi WSW 4.5 mph - -   Mostly Cloudy
2:00 PM 51.8 °F - 35.6 °F 54% 29.92 in 6.2 mi Variable 2.3 mph - N/A   Mostly Cloudy
2:30 PM 51.8 °F - 35.6 °F 54% 29.92 in 6.2 mi Variable 2.3 mph - N/A   Mostly Cloudy
3:00 PM 53.6 °F - 35.6 °F 51% 29.92 in 6.2 mi Variable 2.3 mph - N/A   Scattered Clouds
3:30 PM 53.6 °F - 33.8 °F 47% 29.92 in 6.2 mi Variable 3.5 mph - N/A   Scattered Clouds
4:00 PM 53.6 °F - 33.8 °F 47% 29.92 in 6.2 mi Variable 3.5 mph - N/A   Scattered Clouds
4:30 PM 53.6 °F - 35.6 °F 51% 29.92 in 6.2 mi West 4.6 mph - N/A   Scattered Clouds
5:00 PM 51.8 °F - 33.8 °F 50% 29.92 in 6.2 mi NNW 4.6 mph - N/A   Scattered Clouds
5:30 PM 51.8 °F - 33.8 °F 50% 29.92 in 6.2 mi NNW 4.6 mph - N/A   Scattered Clouds
6:00 PM 51.8 °F - 33.8 °F 50% 29.92 in 6.2 mi NW 3.5 mph - N/A   Partly Cloudy
6:30 PM 51.8 °F - 35.6 °F 54% 29.92 in 6.2 mi North 4.6 mph - N/A   Partly Cloudy
7:00 PM 50.0 °F - 37.4 °F 62% 29.92 in 6.2 mi North 6.9 mph - N/A   Partly Cloudy
7:30 PM 50.0 °F - 37.4 °F 62% 29.92 in 6.2 mi NNE 5.8 mph - N/A   Partly Cloudy
8:00 PM 49 °F - 37 °F 53% 29.96 in 12 mi North 6.7 mph - -   Partly Cloudy
8:00 PM 48.2 °F - 37.4 °F 66% 29.92 in - North 5.8 mph - N/A   Clear
8:30 PM 48.2 °F - 37.4 °F 66% 29.95 in - North 2.3 mph - N/A   Clear
9:00 PM 48.2 °F - 37.4 °F 66% 29.95 in - Variable 1.2 mph - N/A   Clear
9:30 PM 46.4 °F 45.2 °F 37.4 °F 71% 29.95 in - NNE 3.5 mph - N/A   Clear
10:00 PM 46.4 °F - 37.4 °F 71% 29.95 in - NNW 2.3 mph - N/A   Clear
10:30 PM 46.4 °F 45.2 °F 37.4 °F 71% 29.95 in - North 3.5 mph - N/A   Clear
11:00 PM 44.6 °F 43.1 °F 37.4 °F 76% 29.95 in - North 3.5 mph - N/A   Clear
11:30 PM 44.6 °F 43.1 °F 37.4 °F 76% 29.95 in - NNE 3.5 mph - N/A   Clear